Volver al catálogo

ECHO 1 DEB

METAL OBJ

ActivoLEO
NORAD 53·DEBRIS·🇺🇸 United States

Lanzado Aug 12, 1960 desde Cape Canaveral Space Force Station

Loading…

Próximos Pases (próximas 24 horas)

TLE

ActualizadoSource: Space-Track

Época: Sep 5, 2026, 00:31 UTC

1 00053U 60009E   26248.02193220 -.00000144  00000-0 -58322-3 0  9998
2 00053  47.2764  96.0604 0098462 312.5292  46.7214 12.17413716945159

Sigue ECHO 1 DEB en tiempo real con AllMySat

Download on the App Store